sat.trackr.live / text

‹ back to catalog

FLOCK 4H-26

NORAD 66729 · 2025-276BR

PAYLOAD ACTIVE UNKNOWN

§ Identity

Operator
Country
US
Launch date
2025-11-28
Launch site
AFWTR
Launch vehicle
Mass (kg)
RCS (m²)

Purposes: earth_obs

External: N2YO · Heavens-Above · Gunter

§ Orbital elements

Epoch: 2026-09-19T10:35:29.838048Z

Period
94.70 min
Inclination
97.4113°
Eccentricity
0.0005800
Mean motion
15.20609285 rev/d
Perigee alt
500.0 km
Apogee alt
508.0 km
Semi-major
6,882.1 km
B*
1.9940e-4
RAAN
334.2821°
Arg perigee
54.3727°
Mean anomaly
305.8047°
Rev number
4,473

§ Raw data

FLOCK 4H-261 66729U 25276BR  26262.44131757  .00004304  00000+0  19940-3 0  99982 66729  97.4113 334.2821 0005800  54.3727 305.8047 15.20609285 44734

JSON: /api/v1/satellites/66729 · /tle

For live sub-satellite position, see the globe view (requires WebGL).

§ Visibility from observer

Set your observer location to see the next 7 days of passes ≥ 10°. The values pass through the URL so the page stays shareable.

No JS? Fill the form by hand. The geolocation button needs JavaScript.